Location: Baix
(44.7118°N, 4.7648°E)
Time: 10:24:53
(UTC+00:00)

Tiros 1 despin weight - Pass Details

Date: 29 November 2020
Orbit: 594 x 641 km, 48.2° (Epoch: 17 January)

Event Time Altitude Azimuth Distance (km) Brightness Sun altitude
Rises 17:56:28 0° 288° (WNW) 2,939 ? -19.7°
Reaches altitude 10° 17:59:07 10° 275° (W) 2,023 ? -20.2°
Maximum altitude 18:02:55 25° 220° (SW) 1,273 ? -20.8°
Drops below altitude 10° 18:06:40 10° 165° (SSE) 1,995 ? -21.5°
Enters shadow 18:07:50 - 158° (SSE) 2,380 ? -21.7°
